Dewpoint
-8 -10 -12 -4 -3 -4 -3 -5 -8 -9 -11 -12 -10 -6 -6 -6 3 3 9 5 2 1 6 8 9 10 8 6 6 3 6 9 9 9 9 10 10 9 8 9 10 11 10 10 9 10 11 12 12
-10 -15 -6 -2 -4 -3 -6 -5 -6 -8 -10 -10 -11 -8 -8 -1 8 8 8 7 2 -1 2 5 5 4 2 3 7 5 5 8 10 10 10 10 10 10 9 8 7 8 9 10 10 11 11 12 12
-14 -15 -4 -2 -2 -4 -8 -8 -8 -10 -10 -10 -11 -11 -9 1 6 4 5 5 4 1 1 1 1 -2 -2 0 5 5 5 6 9 11 11 11 10 10 10 9 8 9 10 10 10 10 11 11 10
-13 -3 -1 -0 -1 -3 -6 -8 -9 -9 -9 -10 -11 -10 -8 -1 3 5 6 7 -0 -0 0 -1 -2 -4 -3 -1 4 5 6 7 9 11 11 12 11 11 10 11 10 9 9 10 9 10 11 10 9
-7 -0 -1 1 0 -2 -6 -7 -7 -8 -9 -9 -8 -9 -9 3 5 6 7 5 -6 -3 -2 -2 -4 -4 -3 -2 1 4 6 8 8 10 11 12 12 12 11 11 11 10 10 11 9 10 11 9 9
-5 -1 2 0 -2 -3 -4 -6 -6 -7 -7 -8 -10 -9 -9 8 7 8 8 2 -5 -6 -4 -5 -4 -4 -3 -3 -2 2 4 7 8 9 11 11 12 12 11 11 11 11 10 11 10 9 9 9 9
-7 -1 1 0 -1 -3 -4 -6 -6 -7 -7 -7 -8 -7 -5 6 8 8 5 -5 -5 -5 -7 -5 -5 -4 -5 -4 -3 -1 3 6 7 8 10 10 11 12 12 12 11 12 10 11 10 9 7 8 7
-4 -1 2 -0 -0 -0 -4 -4 -5 -6 -6 -7 -7 -10 -4 4 7 9 5 -2 -1 -4 -4 -5 -5 -5 -7 -7 -4 -3 1 4 6 7 8 9 10 11 11 12 12 12 11 11 10 9 8 7 6
-1 2 3 1 1 -0 -2 -2 -4 -4 -5 -5 -6 -7 2 6 10 9 9 3 -2 -3 -2 -3 -4 -3 -6 -6 -6 -3 -0 3 6 6 7 8 9 10 11 12 12 12 12 11 11 10 10 7 6
-4 0 0 -0 -1 -1 -1 -2 -2 -3 -4 -5 -5 -7 -7 5 9 11 10 7 4 2 1 0 -2 -2 -4 -5 -5 -5 -2 0 3 4 5 7 8 9 10 11 12 12 12 12 11 10 10 8 6
-5 -2 -4 -4 -4 -4 -4 -5 -5 -5 -4 -5 -6 -7 -7 -8 8 12 11 8 7 6 6 6 4 2 -2 -4 -4 -4 -3 -1 -0 2 3 7 8 10 10 12 12 12 12 12 11 11 10 9 7
-4 -6 -6 -6 -7 -7 -6 -6 -6 -6 -6 -7 -7 -7 -7 -8 -10 -2 10 11 9 8 7 7 8 7 2 -2 -3 -3 -3 -2 -1 1 4 6 9 9 10 11 12 12 12 12 11 11 9 9 8
-7 -6 -7 -6 -5 -5 -6 -6 -6 -6 -8 -9 -8 -8 -9 -10 -11 -10 -11 -6 10 11 9 7 8 9 8 7 1 -2 -2 -1 -1 -0 3 4 8 8 9 10 10 11 11 12 11 11 11 9 8
-7 -8 -8 -9 -9 -9 -8 -8 -8 -9 -9 -9 -9 -9 -9 -10 -10 -11 -11 -10 -10 1 10 9 9 9 10 10 9 5 -1 -1 -0 0 2 4 5 7 8 9 9 10 11 11 11 10 11 9 9
-5 -3 -5 -5 -6 -7 -8 -8 -8 -10 -10 -10 -12 -13 -13 -14 -15 -14 -14 -12 -10 -10 -9 7 8 9 10 11 11 10 4 -0 0 0 2 3 3 7 7 9 9 10 10 11 11 10 10 10 9
-4 -4 -2 -5 -7 -8 -9 -6 -9 -10 -11 -10 -10 -10 -10 -11 -12 -13 -12 -13 -11 -11 -11 -10 -4 8 10 10 10 10 10 3 1 1 2 3 3 7 8 9 9 10 11 12 11 10 10 10 9
-4 -1 -2 -4 -7 -7 -8 -7 -9 -10 -10 -10 -11 -12 -12 -11 -10 -12 -12 -10 -10 -9 -9 -11 -10 -3 6 8 9 8 10 7 4 3 5 5 4 7 8 8 9 11 11 11 11 11 10 10 10
-2 -2 -3 -3 -6 -9 -8 -8 -9 -9 -10 -10 -12 -12 -11 -11 -10 -10 -12 -12 -12 -12 -11 -8 -10 -9 -4 2 5 8 10 11 7 7 7 7 7 8 9 9 11 11 12 12 11 11 11 10 11
-5 -5 -5 -7 -9 -8 -8 -8 -9 -10 -11 -10 -11 -11 -10 -10 -11 -11 -10 -11 -12 -12 -11 -11 -8 -9 -5 -1 4 8 10 11 9 8 9 9 7 8 10 9 11 11 11 11 11 11 11 11 11
-8 -7 -7 -8 -9 -8 -8 -8 -9 -10 -11 -11 -10 -10 -10 -9 -8 -8 -7 -8 -7 -7 -10 -11 -10 -8 -6 -4 -3 2 5 9 10 9 11 11 9 8 9 9 10 11 11 12 12 11 11 11 11
-5 -6 -5 -5 -7 -7 -7 -5 -6 -8 -8 -8 -8 -8 -6 3 6 6 2 -4 -6 -9 -9 -10 -10 -9 -7 -5 -2 4 7 11 10 10 9 10 11 9 8 8 12 11 11 11 11 11 11 11 11
-2 -4 -4 -4 -4 -2 -6 -1 -4 -6 -6 -7 -5 0 7 6 6 6 6 6 2 -1 -2 -6 -9 -9 -6 -2 -1 -1 1 8 7 7 8 11 10 9 6 9 12 11 11 11 11 11 11 11 11
-5 -6 -4 -4 -2 -3 -3 -1 -3 -6 -5 -2 6 7 6 5 5 5 6 6 8 7 4 -1 -7 -6 -8 -3 -1 -1 4 5 4 7 8 11 10 9 9 7 11 11 11 11 10 10 10 10 10
-7 -7 -4 -4 -3 0 -3 -2 -3 -5 1 6 6 5 4 4 4 5 6 7 7 9 8 6 -2 -3 -3 -1 -0 3 1 7 7 7 7 10 11 9 9 11 11 10 11 11 9 9 9 9 9
-4 -3 -0 1 2 1 -1 0 -3 6 6 6 6 5 4 3 4 5 6 7 8 8 9 11 5 3 3 3 5 6 6 6 7 6 9 9 11 9 9 11 11 10 11 10 9 9 9 10 10
-1 -3 -0 3 5 2 -0 3 0 5 5 4 4 4 3 2 2 1 6 4 8 8 9 9 12 13 10 6 7 9 8 9 10 9 8 10 10 9 7 8 10 10 10 10 9 9 10 9 9
-2 1 -0 2 1 3 1 1 5 5 4 5 4 3 2 1 1 0 3 5 7 8 8 10 12 13 11 9 9 8 8 8 8 8 10 12 10 9 7 7 7 8 9 9 9 9 9 9 9
-2 -2 3 4 6 4 1 2 2 6 6 5 4 2 2 0 -1 -1 0 3 5 6 8 9 11 13 12 10 8 8 8 8 8 8 11 11 10 8 8 8 9 9 9 9 9 9 9 9 9
-5 -6 -0 4 4 7 4 3 5 6 6 6 3 1 0 -1 -1 -2 -1 1 3 5 7 8 10 11 11 11 8 8 8 9 8 9 11 10 9 9 9 9 9 9 9 8 8 8 8 8 9
-6 1 3 1 2 3 4 5 4 3 3 2 1 0 -1 -2 -2 -3 -2 0 2 4 7 8 9 9 9 8 10 9 9 10 10 10 11 10 10 10 10 9 9 8 9 8 8 8 8 9 9
Wind_Speed
7 5 6 5 3 5 5 7 4 5 8 3 21 9 6 3 4 5 22 23 27 27 28 27 25 23 21 20 19 17 18 19 18 18 17 15 14 14 14 14 14 13 13 13 14 13 12 10 11
7 7 7 4 5 2 6 5 12 4 12 25 25 14 6 3 4 10 22 23 22 25 26 25 23 21 20 19 20 19 19 20 20 19 18 16 15 14 13 13 13 14 14 14 14 13 12 12 11
7 11 6 4 4 8 6 7 2 3 17 24 10 14 7 4 12 25 24 24 25 26 26 25 23 22 20 20 21 20 20 20 21 21 19 17 16 15 13 13 13 14 13 14 13 14 13 12 11
8 6 3 4 9 7 7 3 5 9 21 6 11 11 12 9 10 25 25 26 25 25 24 23 22 21 20 20 20 20 20 21 22 22 21 19 17 16 15 14 13 13 13 14 14 15 14 13 12
10 2 2 3 7 6 7 9 2 6 7 20 30 12 13 10 17 24 27 28 26 27 25 23 22 21 19 19 19 20 20 21 22 22 22 20 18 17 16 16 16 15 14 15 15 15 15 15 14
5 2 1 6 6 4 7 9 3 4 13 24 13 11 8 15 18 26 29 26 26 27 26 25 24 21 19 18 18 19 20 21 22 22 22 21 19 18 18 17 17 16 16 16 17 17 16 17 16
5 4 5 4 4 4 6 6 4 3 6 9 28 6 4 11 22 25 26 24 27 27 27 27 24 20 18 18 18 18 20 21 21 21 21 21 20 20 19 19 17 17 18 17 17 17 17 19 17
4 4 3 5 5 8 4 4 3 5 6 20 18 7 9 16 24 30 28 28 30 30 29 27 25 21 18 18 18 17 18 19 20 20 21 21 21 21 20 20 19 18 18 17 17 18 19 17 17
6 1 3 6 5 6 8 4 4 10 13 21 18 24 21 10 21 30 29 29 30 30 29 27 26 24 21 18 18 18 17 18 19 20 21 22 23 22 22 22 21 19 19 18 18 19 19 20 20
6 4 9 6 4 6 21 9 25 8 15 20 27 23 17 10 17 32 31 31 30 28 28 26 25 24 23 21 19 19 19 19 19 21 22 23 22 22 22 22 22 21 21 22 21 21 22 22 22
5 7 4 5 12 15 9 20 23 6 11 23 23 27 23 18 13 27 32 33 28 25 26 25 25 25 24 23 22 21 21 20 19 19 19 21 22 23 23 24 24 23 23 25 25 26 25 24 24
5 7 9 9 19 21 9 28 17 20 20 30 32 28 26 21 20 15 27 35 35 32 28 26 26 26 26 26 26 24 24 22 21 20 21 22 24 24 24 25 25 25 24 24 28 31 27 25 27
6 7 20 23 26 26 27 17 17 26 23 15 21 26 25 20 21 25 24 24 35 35 34 30 31 29 28 26 29 29 28 26 23 22 23 23 24 24 24 25 25 25 24 24 29 32 29 26 27
7 9 14 13 18 20 11 12 9 10 31 28 24 24 27 30 29 31 31 28 27 30 40 36 36 34 32 31 26 31 33 30 27 24 24 24 24 24 24 25 24 24 25 25 27 26 26 28 26
10 7 5 6 8 7 16 7 8 25 21 25 26 27 29 31 34 36 33 35 33 33 31 40 40 41 39 34 31 27 35 33 30 28 26 25 25 24 24 24 23 24 25 26 28 25 27 25 26
4 2 3 3 2 5 5 15 6 19 12 22 26 28 31 31 30 29 30 27 26 33 35 35 38 45 42 38 33 30 31 35 33 30 28 26 26 25 24 24 23 23 24 26 28 28 33 32 29
2 6 5 6 4 6 6 15 4 14 24 20 27 32 34 36 34 29 28 30 30 29 29 37 40 42 44 42 35 32 32 35 35 33 30 27 27 26 25 24 24 23 24 26 27 29 34 32 33
5 4 4 4 5 2 10 22 9 19 18 24 29 33 37 39 40 35 32 30 32 30 29 30 38 43 41 40 39 36 35 36 37 34 33 28 29 28 26 25 24 23 25 27 26 29 32 34 30
3 5 10 6 10 4 13 21 17 15 10 15 26 31 37 38 36 40 40 35 36 31 30 27 27 37 44 45 43 42 40 40 36 35 35 31 29 28 27 27 26 26 28 28 26 26 27 28 28
7 8 10 8 12 5 11 21 18 9 8 21 23 27 33 35 39 38 36 37 37 37 34 31 27 29 41 46 42 45 42 42 37 35 35 32 31 30 30 30 29 29 28 29 27 26 26 26 30
8 5 8 11 9 6 7 19 10 6 12 25 26 29 27 16 17 16 18 24 30 31 32 35 30 31 32 45 45 48 45 44 40 36 35 39 34 33 33 30 30 30 29 29 28 26 26 28 32
11 7 14 14 6 7 8 11 25 10 5 9 20 15 16 17 19 21 19 13 14 20 21 25 30 30 30 42 48 48 45 47 42 36 43 42 35 34 34 30 30 29 29 28 27 25 26 28 32
8 9 10 11 4 4 9 3 12 14 17 8 8 13 14 20 20 23 28 24 19 14 17 23 30 30 31 38 50 50 49 49 43 45 44 38 36 34 32 28 29 28 27 27 25 23 27 30 32
8 4 4 3 2 4 19 6 16 10 5 4 8 15 18 20 22 20 21 27 21 15 14 14 21 26 32 37 46 54 49 50 47 44 40 40 38 34 30 30 29 30 28 28 25 25 27 29 31
7 2 2 3 1 8 5 2 7 5 3 1 7 15 20 28 25 26 21 27 23 21 18 10 20 27 32 31 43 53 49 50 48 43 38 38 37 33 30 31 30 29 29 28 24 25 28 30 32
6 4 4 4 3 4 3 6 4 3 6 10 7 13 24 32 30 28 19 25 22 21 20 11 15 22 31 33 40 46 46 43 43 37 33 35 35 31 27 27 28 25 26 26 25 26 28 31 35
4 2 2 4 1 3 4 5 1 3 4 2 6 14 21 28 32 29 24 21 18 19 16 9 10 22 27 28 34 36 38 36 36 33 29 29 30 28 23 22 20 21 22 25 28 30 32 30 31
5 5 4 2 3 6 5 5 5 4 6 5 7 14 19 22 27 30 26 22 19 18 16 10 6 12 19 25 27 26 27 31 29 27 25 26 26 23 21 21 22 23 24 28 28 27 29 31 31
5 2 3 2 4 4 5 4 2 5 8 7 9 17 16 19 22 28 25 23 19 18 17 15 6 11 16 16 25 25 24 26 24 24 22 24 22 21 20 22 21 21 22 24 22 21 25 29 36
5 3 2 2 3 3 3 4 4 7 9 11 15 15 15 18 22 26 26 25 23 20 18 17 12 2 5 8 13 19 29 17 25 21 19 22 22 18 18 20 20 18 18 18 17 15 16 19 24
Wind_Direction
228 211 171 159 65 62 268 260 258 288 327 233 320 278 244 250 178 215 147 158 162 170 166 164 162 168 176 182 180 178 178 176 177 176 171 169 164 164 169 178 179 187 190 179 176 179 177 179 168
206 176 160 128 107 139 259 234 249 227 268 310 317 294 257 265 165 147 153 156 164 171 168 167 167 173 182 188 185 181 180 180 181 181 177 176 171 172 172 179 181 184 182 175 179 182 180 181 176
186 168 155 137 163 205 228 221 238 280 307 309 297 310 278 207 188 169 161 164 172 176 172 170 173 178 185 189 187 186 184 183 184 185 184 184 178 180 179 179 185 184 177 177 182 185 187 184 186
168 165 111 130 226 260 228 196 1 344 325 329 290 298 295 195 188 178 173 175 174 174 173 174 177 179 182 186 188 189 188 186 187 188 188 189 185 186 185 187 194 188 181 181 189 190 184 184 186
178 170 108 230 244 248 259 261 320 301 280 301 307 276 284 246 186 181 178 178 176 173 173 178 181 182 186 189 191 192 192 190 191 191 192 193 192 194 192 191 197 194 188 181 191 187 183 183 184
169 127 83 238 248 238 254 272 245 259 296 308 321 276 260 194 184 181 182 179 177 176 178 181 184 187 189 192 197 196 196 194 195 194 195 197 198 198 196 198 198 197 193 189 189 187 182 183 185
146 109 218 211 254 283 263 258 227 263 316 314 328 279 288 201 199 188 184 182 181 184 185 187 189 190 193 196 200 199 197 196 197 198 198 200 201 202 199 202 203 202 198 199 194 188 186 187 188
204 124 223 224 224 269 265 330 295 316 302 321 341 349 309 206 190 188 186 185 187 190 190 191 190 193 197 199 200 203 201 200 200 202 200 202 204 204 203 205 208 205 204 205 199 195 192 193 195
201 259 207 217 194 260 295 358 312 302 295 311 314 322 339 245 203 192 189 190 193 194 196 196 197 197 199 201 203 204 204 205 204 207 204 205 205 206 206 209 210 207 206 207 202 197 205 196 196
182 180 220 209 219 267 296 298 298 290 299 299 303 306 326 325 226 201 197 198 197 199 203 205 206 206 203 203 208 209 208 209 208 209 206 206 206 208 210 212 213 211 209 206 201 207 201 198 207
205 229 219 240 271 285 279 293 282 265 278 275 278 296 301 302 240 213 206 204 210 214 215 218 218 219 216 213 213 213 214 214 213 213 214 207 207 208 210 211 211 213 216 211 203 200 200 204 208
259 241 247 270 274 278 262 274 282 271 270 280 285 288 285 279 276 255 230 215 213 222 221 229 228 224 224 224 224 222 222 219 216 214 213 213 208 210 211 212 215 217 220 217 211 205 205 212 213
218 253 265 266 268 273 278 262 260 280 291 299 286 278 275 272 275 273 273 257 238 226 228 233 236 231 227 231 231 227 227 226 220 216 215 220 215 216 216 216 218 221 221 222 216 213 212 215 211
261 256 279 281 269 268 259 262 260 275 291 291 285 277 281 282 279 277 272 268 255 247 238 237 238 239 236 233 238 237 230 226 224 220 219 221 222 220 221 220 221 223 224 225 224 223 214 212 207
270 294 292 245 233 235 267 260 234 279 281 289 297 297 294 289 284 282 281 275 268 265 255 242 240 242 238 238 240 244 237 228 224 223 220 221 225 221 223 223 224 226 227 228 230 224 212 212 209
335 291 300 295 21 281 232 273 298 298 303 309 306 304 305 301 298 285 284 274 276 271 258 250 247 240 238 239 238 241 239 229 225 224 219 216 224 221 222 224 225 225 227 230 232 219 213 218 220
319 259 256 299 271 258 232 293 245 301 301 291 301 304 303 300 293 292 282 274 275 277 275 251 242 241 236 236 237 240 241 233 227 222 219 215 222 222 222 226 225 224 226 228 228 225 223 228 221
237 262 253 240 291 299 288 285 270 276 274 282 295 299 300 298 292 291 287 277 281 281 277 262 244 241 234 233 232 232 236 230 229 223 220 219 223 223 224 227 227 227 226 228 227 230 237 232 223
242 269 270 273 265 287 283 282 289 290 256 264 273 285 293 294 299 287 285 285 276 278 275 269 250 241 231 228 224 227 228 233 230 228 225 222 225 228 227 230 227 227 230 231 231 230 234 235 230
239 258 275 272 255 216 263 274 282 277 260 271 281 284 289 297 302 297 294 286 286 278 270 267 260 249 237 230 228 226 225 230 230 228 229 225 228 230 229 228 226 227 227 230 231 226 219 220 216
245 223 258 261 290 253 285 280 283 283 280 290 292 299 303 324 323 312 294 283 272 270 262 262 259 252 239 235 227 226 223 223 222 225 228 232 228 228 229 225 226 226 229 230 229 227 223 217 218
263 237 253 267 270 263 181 286 297 293 308 315 322 339 16 4 358 351 346 332 285 259 248 250 255 246 246 233 226 224 220 221 225 226 232 227 227 223 227 222 221 223 225 228 230 230 230 224 222
255 230 259 267 245 316 258 151 278 318 311 328 346 19 1 343 342 349 350 346 331 303 266 246 243 238 239 233 230 228 222 222 224 223 231 227 223 220 222 219 219 219 223 226 225 228 229 231 232
264 268 245 33 88 270 285 171 280 296 331 6 360 10 2 345 346 341 343 338 326 332 296 250 236 235 230 232 232 226 224 221 220 224 227 226 219 220 217 217 219 220 222 224 224 233 237 237 237
14 65 322 311 331 250 34 317 247 7 24 80 8 352 357 359 354 353 338 340 335 330 318 258 217 224 226 227 231 225 225 224 221 225 222 226 216 218 220 218 217 219 220 225 229 239 245 245 246
298 177 187 264 215 260 17 254 254 106 67 66 53 14 359 360 359 350 353 343 353 337 324 302 218 218 224 225 227 226 230 228 225 226 226 229 218 220 223 218 219 223 215 225 233 244 250 258 256
302 344 252 273 298 288 234 279 145 141 32 47 26 42 11 353 354 347 2 350 355 348 349 330 229 211 225 228 229 231 232 228 222 223 228 221 217 219 215 213 212 213 214 231 232 239 245 253 252
80 284 348 12 266 240 260 244 234 7 341 320 26 34 10 351 350 351 356 359 2 0 358 28 141 173 218 225 223 230 226 226 226 231 222 212 214 207 208 205 209 220 224 229 236 237 244 249 252
340 312 292 181 257 276 278 260 1 45 1 334 31 31 12 354 351 351 358 2 2 6 11 24 91 166 171 196 222 215 228 232 238 228 210 208 200 204 209 214 215 232 233 230 234 245 254 253 250
220 57 346 151 275 275 270 268 83 84 56 42 22 8 6 0 354 355 4 7 8 15 17 15 40 65 173 172 188 218 225 230 228 207 215 203 199 205 214 222 225 220 228 239 244 257 255 258 254
Height
1496 1496 1498 1500 1513 1520 1522 1506 1488 1483 1478 1470 1468 1468 1463 1461 1462 1473 1455 1458 1462 1466 1469 1472 1475 1479 1484 1487 1487 1486 1488 1491 1494 1497 1499 1500 1502 1503 1505 1508 1510 1511 1512 1514 1515 1517 1520 1521 1524
1494 1496 1499 1499 1518 1526 1515 1493 1484 1482 1476 1471 1467 1461 1462 1460 1458 1457 1458 1460 1464 1465 1467 1470 1473 1477 1482 1485 1487 1486 1486 1489 1493 1496 1499 1501 1502 1504 1506 1508 1509 1511 1512 1514 1516 1517 1520 1522 1524
1494 1495 1497 1503 1517 1513 1506 1483 1479 1476 1475 1473 1471 1465 1461 1457 1457 1457 1458 1460 1462 1465 1467 1468 1471 1475 1479 1483 1485 1486 1487 1488 1491 1494 1497 1500 1502 1504 1506 1509 1511 1511 1512 1513 1516 1517 1519 1522 1524
1494 1496 1498 1505 1505 1498 1487 1477 1478 1476 1471 1470 1470 1465 1460 1455 1454 1455 1456 1458 1460 1464 1468 1471 1472 1474 1477 1480 1483 1485 1487 1487 1490 1493 1496 1499 1501 1503 1506 1508 1510 1510 1512 1513 1515 1517 1518 1522 1523
1495 1495 1503 1504 1498 1486 1479 1473 1477 1477 1476 1470 1467 1462 1456 1454 1453 1454 1455 1456 1459 1462 1467 1470 1473 1474 1475 1478 1481 1484 1486 1488 1489 1491 1494 1497 1500 1502 1505 1507 1509 1510 1512 1513 1515 1517 1519 1521 1522
1493 1494 1507 1504 1492 1480 1474 1474 1477 1475 1474 1469 1465 1459 1452 1454 1453 1454 1456 1457 1460 1461 1466 1469 1471 1473 1475 1477 1479 1482 1485 1486 1488 1490 1492 1495 1498 1500 1503 1505 1507 1510 1511 1512 1514 1515 1517 1519 1521
1491 1497 1500 1495 1489 1482 1472 1472 1474 1474 1473 1468 1466 1460 1453 1451 1453 1455 1457 1459 1461 1463 1464 1466 1469 1472 1474 1476 1479 1481 1483 1485 1487 1489 1491 1493 1496 1498 1501 1503 1506 1509 1511 1512 1513 1515 1517 1519 1520
1488 1491 1494 1491 1489 1485 1473 1472 1472 1473 1471 1468 1466 1463 1459 1451 1452 1454 1456 1457 1459 1461 1463 1464 1467 1469 1471 1474 1477 1479 1481 1484 1486 1488 1489 1491 1494 1496 1499 1501 1504 1507 1510 1511 1513 1515 1517 1518 1520
1486 1493 1497 1486 1485 1477 1470 1473 1471 1472 1471 1468 1466 1464 1459 1454 1454 1454 1455 1457 1459 1460 1462 1463 1465 1467 1469 1472 1475 1477 1480 1482 1484 1486 1488 1489 1491 1494 1497 1499 1502 1504 1507 1509 1512 1514 1516 1517 1518
1483 1490 1483 1475 1473 1475 1469 1472 1469 1470 1469 1465 1463 1462 1460 1459 1456 1455 1455 1457 1458 1459 1461 1462 1464 1466 1468 1470 1473 1475 1478 1480 1482 1484 1486 1487 1489 1492 1494 1496 1500 1502 1504 1507 1509 1512 1514 1515 1517
1476 1477 1473 1471 1471 1472 1470 1464 1467 1466 1465 1464 1462 1460 1460 1459 1459 1457 1457 1456 1458 1459 1459 1461 1462 1464 1466 1468 1470 1472 1475 1477 1479 1481 1483 1485 1487 1490 1492 1494 1497 1499 1502 1504 1506 1509 1512 1515 1515
1476 1470 1469 1468 1469 1468 1466 1464 1459 1462 1462 1461 1460 1458 1457 1456 1458 1459 1460 1458 1456 1458 1458 1459 1460 1461 1463 1466 1467 1469 1471 1473 1476 1478 1480 1482 1484 1487 1489 1491 1493 1496 1498 1501 1503 1506 1510 1513 1514
1471 1468 1465 1465 1465 1462 1460 1459 1458 1451 1454 1454 1454 1454 1452 1452 1453 1454 1455 1456 1457 1455 1456 1456 1456 1457 1459 1461 1463 1465 1468 1470 1472 1474 1476 1479 1481 1484 1486 1488 1490 1492 1495 1497 1500 1502 1506 1510 1511
1464 1463 1462 1462 1461 1457 1454 1452 1453 1451 1449 1448 1449 1450 1449 1447 1448 1447 1448 1448 1450 1453 1453 1453 1453 1454 1454 1456 1458 1461 1463 1466 1469 1471 1473 1475 1478 1480 1482 1485 1486 1488 1492 1494 1497 1500 1503 1507 1509
1463 1462 1459 1458 1456 1454 1449 1448 1447 1445 1445 1442 1443 1442 1442 1440 1439 1439 1440 1441 1443 1445 1447 1447 1448 1449 1450 1452 1453 1457 1460 1461 1464 1466 1469 1471 1474 1476 1479 1481 1483 1485 1488 1491 1494 1497 1502 1505 1507
1464 1461 1464 1456 1454 1450 1450 1437 1441 1442 1440 1440 1438 1436 1435 1432 1432 1431 1431 1431 1434 1435 1436 1440 1441 1442 1444 1446 1449 1452 1455 1458 1459 1461 1464 1466 1470 1473 1476 1478 1480 1482 1484 1488 1490 1494 1496 1498 1504
1468 1470 1465 1461 1452 1452 1451 1439 1437 1438 1437 1435 1434 1431 1429 1426 1426 1425 1424 1425 1426 1426 1425 1427 1430 1431 1436 1439 1443 1447 1451 1452 1453 1456 1460 1462 1466 1469 1472 1474 1477 1479 1481 1484 1486 1490 1493 1494 1498
1471 1468 1465 1465 1456 1452 1453 1437 1437 1435 1434 1430 1428 1427 1425 1421 1418 1419 1417 1416 1417 1418 1417 1416 1420 1424 1428 1432 1436 1439 1443 1446 1448 1452 1455 1458 1461 1464 1467 1470 1472 1474 1477 1480 1482 1485 1488 1491 1493
1462 1465 1465 1461 1454 1454 1448 1433 1432 1429 1430 1427 1425 1423 1420 1415 1413 1411 1410 1408 1407 1409 1409 1410 1410 1414 1420 1421 1425 1431 1434 1439 1443 1446 1451 1453 1456 1459 1462 1465 1468 1470 1472 1476 1478 1481 1484 1488 1491
1462 1464 1462 1455 1447 1451 1448 1432 1423 1428 1423 1421 1419 1416 1413 1408 1405 1403 1400 1399 1397 1399 1401 1402 1403 1405 1410 1414 1419 1422 1428 1432 1436 1441 1448 1449 1452 1454 1457 1460 1462 1465 1467 1471 1474 1476 1479 1483 1486
1457 1460 1455 1452 1445 1443 1442 1426 1424 1420 1417 1415 1413 1410 1407 1404 1401 1398 1394 1390 1388 1389 1391 1392 1396 1398 1402 1407 1411 1414 1421 1426 1429 1435 1441 1442 1445 1449 1451 1454 1459 1461 1464 1466 1470 1472 1475 1478 1482
1454 1446 1444 1444 1449 1451 1436 1439 1409 1414 1415 1415 1411 1407 1408 1406 1402 1399 1392 1387 1383 1381 1382 1383 1387 1390 1396 1399 1401 1405 1411 1416 1422 1429 1432 1435 1439 1444 1446 1450 1454 1456 1459 1461 1465 1469 1471 1474 1476
1444 1440 1440 1440 1443 1441 1427 1450 1415 1413 1410 1411 1413 1411 1409 1407 1401 1395 1389 1384 1382 1376 1373 1375 1378 1382 1386 1390 1394 1397 1403 1408 1414 1419 1426 1432 1436 1439 1442 1445 1449 1452 1455 1458 1460 1464 1467 1470 1472
1436 1438 1436 1440 1444 1448 1421 1441 1421 1418 1416 1417 1417 1416 1412 1405 1399 1393 1387 1387 1382 1372 1370 1367 1370 1374 1378 1382 1386 1390 1395 1400 1406 1412 1420 1425 1430 1434 1437 1440 1444 1446 1450 1454 1455 1459 1463 1466 1468
1440 1442 1456 1457 1459 1439 1428 1434 1426 1420 1418 1420 1421 1418 1414 1407 1397 1391 1382 1389 1380 1370 1370 1364 1365 1367 1372 1375 1380 1383 1389 1394 1400 1406 1412 1419 1424 1427 1430 1435 1439 1441 1444 1449 1451 1454 1458 1460 1463
1445 1444 1455 1445 1447 1444 1428 1435 1419 1419 1418 1418 1417 1417 1414 1405 1402 1396 1386 1389 1375 1375 1369 1360 1360 1365 1368 1370 1375 1381 1385 1392 1397 1404 1407 1413 1419 1423 1427 1431 1435 1437 1439 1445 1446 1448 1453 1455 1457
1444 1447 1441 1442 1434 1440 1428 1421 1421 1417 1416 1415 1413 1406 1410 1410 1404 1398 1386 1388 1380 1376 1369 1362 1359 1365 1366 1370 1374 1378 1384 1390 1394 1399 1403 1410 1416 1420 1424 1427 1431 1434 1436 1441 1442 1443 1447 1449 1450
1445 1445 1454 1448 1445 1432 1422 1420 1418 1415 1414 1414 1414 1409 1411 1413 1407 1400 1394 1386 1380 1375 1369 1364 1361 1361 1366 1369 1372 1377 1382 1388 1392 1396 1400 1406 1412 1416 1421 1424 1428 1430 1432 1436 1437 1438 1441 1443 1444
1453 1451 1446 1448 1447 1429 1424 1420 1413 1418 1416 1412 1417 1413 1416 1415 1412 1406 1396 1390 1383 1376 1370 1364 1362 1361 1364 1367 1371 1373 1380 1387 1392 1394 1398 1404 1407 1414 1417 1420 1424 1427 1428 1431 1431 1432 1434 1435 1437
1450 1453 1452 1472 1450 1447 1445 1424 1421 1422 1423 1422 1420 1419 1420 1418 1414 1409 1399 1390 1382 1376 1370 1365 1361 1362 1363 1365 1368 1374 1378 1382 1390 1392 1396 1402 1408 1411 1414 1416 1420 1423 1425 1426 1426 1426 1428 1429 1430